EW5026 Weather Reports


Display with metric or nautical units.
time (UTC)temp
F
wind
direction
speed
MPH
gust
MPH
rain 1hr
in
rain 24hr
in
rain mn
in
humidity
%
barometer
mb
20260902191557 94 199 6.0 9.0 0.00 0.00 0.00 62 1012.0
20260902191057 94 209 6.0 9.0 0.00 0.00 0.00 62 1012.1
20260902190558 94 211 3.0 7.0 0.00 0.00 0.00 64 1012.2
20260902190053 94 209 4.0 7.0 0.00 0.00 0.00 64 1012.1
20260902185554 94 211 1.0 9.0 0.00 0.00 0.00 63 1012.2
20260902185052 94 212 5.0 10.0 0.00 0.00 0.00 62 1012.3
20260902184553 94 198 4.0 10.0 0.00 0.00 0.00 60 1012.2
20260902184054 94 217 4.0 8.0 0.00 0.00 0.00 64 1012.2
20260902183552 94 190 4.0 8.0 0.00 0.00 0.00 65 1012.3
20260902183102 94 238 1.0 8.0 0.00 0.00 0.00 64 1012.3
20260902182550 94 217 3.0 8.0 0.00 0.00 0.00 65 1012.3
20260902182049 93 184 2.0 9.0 0.00 0.00 0.00 66 1012.4
20260902181549 93 274 3.0 9.0 0.00 0.00 0.00 65 1012.4
20260902181048 93 270 4.0 8.0 0.00 0.00 0.00 62 1012.5
20260902180548 93 263 3.0 8.0 0.00 0.00 0.00 67 1012.5
20260902180047 93 256 4.0 8.0 0.00 0.00 0.00 65 1012.5
20260902175546 93 211 4.0 8.0 0.00 0.00 0.00 65 1012.5
20260902175049 92 223 4.0 8.0 0.00 0.00 0.00 65 1012.6
20260902174552 92 227 4.0 11.0 0.00 0.00 0.00 64 1012.6
20260902174045 92 239 3.0 11.0 0.00 0.00 0.00 69 1012.7
20260902173544 92 279 4.0 7.0 0.00 0.00 0.00 67 1012.7
20260902173107 91 298 2.0 9.0 0.00 0.00 0.00 70 1012.7
20260902172543 91 266 5.0 9.0 0.00 0.00 0.00 64 1012.8
20260902172043 92 267 3.0 8.0 0.00 0.00 0.00 67 1012.9
20260902171545 92 306 4.0 9.0 0.00 0.00 0.00 67 1012.9
20260902171042 92 222 4.0 9.0 0.00 0.00 0.00 66 1012.9
20260902170541 92 261 4.0 9.0 0.00 0.00 0.00 67 1012.9
20260902170041 91 267 4.0 8.0 0.00 0.00 0.00 67 1013.0
20260902165540 91 242 2.0 9.0 0.00 0.00 0.00 71 1013.0
20260902165044 91 272 5.0 9.0 0.00 0.00 0.00 67 1013.0
20260902164539 91 276 3.0 9.0 0.00 0.00 0.00 70 1013.0
20260902164038 90 244 2.0 9.0 0.00 0.00 0.00 70 1012.9
20260902163537 90 232 4.0 9.0 0.00 0.00 0.00 68 1012.9
20260902163036 90 188 3.0 9.0 0.00 0.00 0.00 70 1012.8
20260902162535 90 190 3.0 7.0 0.00 0.00 0.00 69 1012.8
20260902162035 89 227 4.0 9.0 0.00 0.00 0.00 70 1012.8
20260902161534 89 223 5.0 9.0 0.00 0.00 0.00 70 1012.8
20260902161034 89 134 4.0 9.0 0.00 0.00 0.00 71 1012.9
20260902160535 89 211 3.0 7.0 0.00 0.00 0.00 72 1013.0
20260902160048 89 219 4.0 9.0 0.00 0.00 0.00 71 1012.9
20260902155532 88 261 4.0 9.0 0.00 0.00 0.00 72 1012.9
20260902155030 88 200 3.0 9.0 0.00 0.00 0.00 73 1012.9
20260902154540 87 197 3.0 9.0 0.00 0.00 0.00 72 1012.9
20260902154031 87 212 5.0 10.0 0.00 0.00 0.00 73 1012.9
20260902153526 86 185 5.0 10.0 0.00 0.00 0.00 73 1012.9
20260902153036 86 192 4.0 8.0 0.00 0.00 0.00 75 1012.8
20260902152524 85 202 5.0 9.0 0.00 0.00 0.00 75 1012.8
20260902152026 85 224 4.0 9.0 0.00 0.00 0.00 74 1012.8
20260902150525 85 169 5.0 8.0 0.00 0.00 0.00 74 1012.8
20260902150025 86 219 3.0 9.0 0.00 0.00 0.00 73 1012.8
20260902145524 86 210 5.0 8.0 0.00 0.00 0.00 73 1012.9
20260902145028 86 209 3.0 8.0 0.00 0.00 0.00 73 1012.8
20260902144523 86 211 3.0 7.0 0.00 0.00 0.00 74 1012.8
20260902144023 85 234 3.0 7.0 0.00 0.00 0.00 76 1012.9
20260902143521 85 212 4.0 8.0 0.00 0.00 0.00 74 1012.9
20260902143023 85 210 3.0 8.0 0.00 0.00 0.00 75 1012.9
20260902142527 85 233 4.0 9.0 0.00 0.00 0.00 75 1013.0
20260902142021 85 240 5.0 9.0 0.00 0.00 0.00 74 1012.9
20260902141519 84 212 3.0 7.0 0.00 0.00 0.00 76 1012.9
20260902141018 84 184 4.0 7.0 0.00 0.00 0.00 76 1013.0
20260902140516 83 196 2.0 7.0 0.00 0.00 0.00 77 1013.0
20260902140016 83 221 4.0 7.0 0.00 0.00 0.00 77 1013.1
20260902135514 83 209 3.0 7.0 0.00 0.00 0.00 78 1013.2
20260902135013 82 219 3.0 7.0 0.00 0.00 0.00 79 1013.1
20260902134513 82 202 3.0 7.0 0.00 0.00 0.00 80 1013.3
20260902134013 82 186 3.0 7.0 0.00 0.00 0.00 79 1013.4
20260902133514 82 180 3.0 6.0 0.00 0.00 0.00 80 1013.4
20260902133010 81 194 2.0 4.0 0.00 0.00 0.00 81 1013.5
20260902132511 81 178 1.0 5.0 0.00 0.00 0.00 82 1013.4
20260902132007 80 184 1.0 5.0 0.00 0.00 0.00 83 1013.3
20260902131508 80 176 2.0 5.0 0.00 0.00 0.00 83 1013.4
20260902131005 79 182 2.0 5.0 0.00 0.00 0.00 84 1013.4
20260902130503 79 158 1.0 6.0 0.00 0.00 0.00 85 1013.4
20260902130001 78 165 1.0 6.0 0.00 0.00 0.00 86 1013.3
20260902125600 78 159 0.0 5.0 0.00 0.00 0.00 87 1013.4
20260902125059 77 181 1.0 3.0 0.00 0.00 0.00 88 1013.3
20260902124608 76 150 1.0 4.0 0.00 0.00 0.00 88 1013.2
20260902124056 76 163 0.0 4.0 0.00 0.00 0.00 89 1013.3
20260902123555 75 169 1.0 4.0 0.00 0.00 0.00 90 1013.3
20260902123138 75 153 0.0 2.0 0.00 0.00 0.00 91 1013.3
20260902122554 74 153 0.0 0.0 0.00 0.00 0.00 91 1013.3
20260902122054 73 153 0.0 0.0 0.00 0.00 0.00 92 1013.3
20260902121555 73 153 0.0 0.0 0.00 0.00 0.00 93 1013.4
20260902121055 72 153 0.0 0.0 0.00 0.00 0.00 93 1013.5
20260902120554 72 153 0.0 0.0 0.00 0.00 0.00 93 1013.4
20260902120055 72 153 0.0 0.0 0.00 0.00 0.00 92 1013.3
20260902115555 71 153 0.0 0.0 0.00 0.00 0.00 92 1013.3
20260902115052 71 212 0.0 0.0 0.00 0.00 0.00 93 1013.3
20260902114552 71 212 0.0 0.0 0.00 0.00 0.00 92 1013.3
20260902114054 71 212 0.0 0.0 0.00 0.00 0.00 92 1013.3
20260902113551 71 212 0.0 0.0 0.00 0.00 0.00 92 1013.3
20260902113051 71 212 0.0 0.0 0.00 0.00 0.00 92 1013.3
20260902112551 71 212 0.0 0.0 0.00 0.00 0.00 92 1013.3
20260902112051 71 212 0.0 0.0 0.00 0.00 0.00 92 1013.2
20260902111552 71 212 0.0 2.0 0.00 0.00 0.00 91 1013.2
20260902111050 71 212 0.0 2.0 0.00 0.00 0.00 91 1013.2
20260902110550 71 212 1.0 2.0 0.00 0.00 0.00 92 1013.1
20260902110057 71 212 0.0 2.0 0.00 0.00 0.00 92 1013.1
20260902105550 71 212 1.0 2.0 0.00 0.00 0.00 92 1013.1
20260902105049 71 212 0.0 0.0 0.00 0.00 0.00 92 1013.2
20260902104550 71 212 0.0 0.0 0.00 0.00 0.00 91 1013.1
20260902104048 71 212 0.0 0.0 0.00 0.00 0.00 91 1013.1
20260902103547 71 212 0.0 0.0 0.00 0.00 0.00 91 1013.2
20260902103047 71 212 0.0 0.0 0.00 0.00 0.00 91 1013.2
20260902102547 71 212 0.0 0.0 0.00 0.00 0.00 90 1013.1
20260902102046 71 212 0.0 0.0 0.00 0.00 0.00 90 1013.1
20260902101553 72 212 0.0 2.0 0.00 0.00 0.00 90 1013.0
20260902101044 72 212 0.0 2.0 0.00 0.00 0.00 90 1013.0
20260902100544 72 212 0.0 1.0 0.00 0.00 0.00 90 1013.0
20260902100043 72 212 0.0 1.0 0.00 0.00 0.00 89 1012.9
20260902095542 72 212 0.0 1.0 0.00 0.00 0.00 89 1012.9
20260902095044 72 212 0.0 1.0 0.00 0.00 0.00 89 1013.0
20260902094545 72 212 0.0 1.0 0.00 0.00 0.00 89 1013.0
20260902094042 73 212 0.0 0.0 0.00 0.00 0.00 88 1012.9
20260902093541 73 212 0.0 0.0 0.00 0.00 0.00 88 1013.0
20260902093042 73 212 0.0 0.0 0.00 0.00 0.00 87 1013.0
20260902092540 73 212 0.0 0.0 0.00 0.00 0.00 87 1013.0
20260902092040 74 212 0.0 0.0 0.00 0.00 0.00 87 1013.0
20260902091558 74 212 0.0 2.0 0.00 0.00 0.00 87 1013.0
20260902091039 74 212 0.0 3.0 0.00 0.00 0.00 87 1012.9
20260902090543 74 212 1.0 4.0 0.00 0.00 0.00 88 1012.9
20260902090042 73 222 1.0 4.0 0.00 0.00 0.00 88 1012.9
20260902085537 73 180 0.0 0.0 0.00 0.00 0.00 89 1012.8
20260902085037 72 178 0.0 0.0 0.00 0.00 0.00 90 1012.7
20260902084547 72 178 0.0 0.0 0.00 0.00 0.00 90 1012.6
20260902084038 73 178 0.0 0.0 0.00 0.00 0.00 89 1012.6
20260902083538 73 178 0.0 0.0 0.00 0.00 0.00 89 1012.5
20260902083042 73 178 0.0 0.0 0.00 0.00 0.00 90 1012.6
20260902082536 73 178 0.0 0.0 0.00 0.00 0.00 90 1012.5
20260902082036 73 178 0.0 0.0 0.00 0.00 0.00 90 1012.5
20260902081539 73 178 0.0 0.0 0.00 0.00 0.00 90 1012.5
20260902081035 73 178 0.0 0.0 0.00 0.00 0.00 90 1012.5
20260902080534 73 178 0.0 0.0 0.00 0.00 0.00 90 1012.4
20260902080034 73 178 0.0 0.0 0.00 0.00 0.00 90 1012.5
20260902075533 73 178 0.0 0.0 0.00 0.00 0.00 90 1012.5
20260902075035 73 178 0.0 0.0 0.00 0.00 0.00 91 1012.5
20260902074534 73 178 0.0 0.0 0.00 0.00 0.00 90 1012.4
20260902074034 73 178 0.0 0.0 0.00 0.00 0.00 90 1012.4
20260902073532 74 178 0.0 0.0 0.00 0.00 0.00 90 1012.4
20260902073037 74 178 0.0 0.0 0.00 0.00 0.00 90 1012.5
20260902072530 74 178 0.0 0.0 0.00 0.00 0.00 91 1012.5
20260902072031 74 178 0.0 0.0 0.00 0.00 0.00 91 1012.6
20260902071534 74 178 0.0 0.0 0.00 0.00 0.00 91 1012.6
20260902071031 74 178 0.0 0.0 0.00 0.00 0.00 90 1012.6
20260902070530 74 178 0.0 0.0 0.00 0.00 0.00 90 1012.6
20260902070039 74 178 0.0 0.0 0.00 0.00 0.00 90 1012.6
20260902065529 74 178 0.0 2.0 0.00 0.00 0.00 91 1012.6
20260902065030 74 178 0.0 2.0 0.00 0.00 0.00 91 1012.7
20260902064538 74 178 1.0 2.0 0.00 0.00 0.00 91 1012.6
20260902064029 74 178 0.0 2.0 0.00 0.00 0.00 91 1012.6
20260902063530 74 178 0.0 2.0 0.00 0.00 0.00 91 1012.6
20260902063033 74 178 0.0 2.0 0.00 0.00 0.00 91 1012.6
20260902062529 74 178 0.0 0.0 0.00 0.00 0.00 91 1012.6
20260902062028 74 178 0.0 1.0 0.00 0.00 0.00 91 1012.5
20260902061528 74 178 0.0 1.0 0.00 0.00 0.00 90 1012.4
20260902061027 74 178 0.0 0.0 0.00 0.00 0.00 90 1012.5
20260902060529 74 178 0.0 3.0 0.00 0.00 0.00 90 1012.6
20260902060025 75 178 0.0 3.0 0.00 0.00 0.00 90 1012.6
20260902055526 75 178 1.0 3.0 0.00 0.00 0.00 90 1012.7
20260902055025 75 171 1.0 2.0 0.00 0.00 0.00 90 1012.6
20260902054524 75 171 0.0 2.0 0.00 0.00 0.00 90 1012.6
20260902054024 75 171 0.0 2.0 0.00 0.00 0.00 90 1012.6
20260902053524 75 171 1.0 3.0 0.00 0.00 0.00 90 1012.6
20260902053024 75 171 1.0 3.0 0.00 0.00 0.00 90 1012.6
20260902052527 75 176 1.0 3.0 0.00 0.00 0.00 90 1012.6
20260902052024 75 163 1.0 2.0 0.00 0.00 0.00 90 1012.6
20260902051523 75 163 0.0 2.0 0.00 0.00 0.00 90 1012.7
20260902051023 75 163 1.0 3.0 0.00 0.00 0.00 90 1012.7
20260902050522 75 163 1.0 3.0 0.00 0.00 0.00 91 1012.8
20260902050021 75 119 1.0 2.0 0.00 0.00 0.00 91 1012.8
20260902045525 74 119 1.0 2.0 0.00 0.00 0.00 91 1012.7
20260902045020 74 119 1.0 2.0 0.00 0.00 0.00 91 1012.7
20260902044520 74 119 0.0 2.0 0.00 0.00 0.00 91 1012.7
20260902044020 74 119 0.0 0.0 0.00 0.00 0.00 90 1012.7
20260902043519 74 119 0.0 2.0 0.00 0.00 0.00 90 1012.8
20260902043020 74 119 0.0 2.0 0.00 0.00 0.00 90 1012.8
20260902042520 74 119 1.0 2.0 0.00 0.00 0.00 90 1012.8
20260902042021 74 119 0.0 2.0 0.00 0.00 0.00 90 1012.7
20260902041539 74 119 0.0 3.0 0.00 0.00 0.00 90 1012.7
20260902041019 74 119 1.0 3.0 0.00 0.00 0.00 91 1012.7
20260902040519 74 119 1.0 2.0 0.00 0.00 0.00 91 1012.7
20260902040018 74 119 0.0 0.0 0.00 0.00 0.00 91 1012.7
20260902035522 74 119 0.0 0.0 0.00 0.00 0.00 91 1012.8
20260902035018 74 119 0.0 2.0 0.00 0.00 0.00 91 1012.8
20260902034518 75 119 0.0 2.0 0.00 0.00 0.00 91 1012.8
20260902034018 75 119 0.0 2.0 0.00 0.00 0.00 91 1012.8
20260902033518 74 119 0.0 0.0 0.00 0.00 0.00 91 1012.7
20260902033018 74 119 0.0 0.0 0.00 0.00 0.00 91 1012.8
20260902032519 74 119 0.0 0.0 0.00 0.00 0.00 91 1012.7
20260902032017 74 119 0.0 0.0 0.00 0.00 0.00 91 1012.8
20260902031518 74 119 0.0 0.0 0.00 0.00 0.00 91 1012.8
20260902031018 74 119 0.0 0.0 0.00 0.00 0.00 91 1012.8
20260902030519 74 119 0.0 0.0 0.00 0.00 0.00 91 1012.8
20260902030017 75 119 0.0 0.0 0.00 0.00 0.00 91 1012.8
20260902025517 75 119 0.0 0.0 0.00 0.00 0.00 91 1012.8
20260902025017 75 119 0.0 0.0 0.00 0.00 0.00 91 1012.8
20260902024517 75 119 0.0 0.0 0.00 0.00 0.00 91 1012.8
20260902024016 75 119 0.0 0.0 0.00 0.00 0.00 91 1012.8
20260902023516 75 119 0.0 0.0 0.00 0.00 0.00 91 1012.8
20260902023017 75 119 0.0 0.0 0.00 0.00 0.00 91 1012.8
20260902022519 76 119 0.0 0.0 0.00 0.00 0.00 91 1012.7
20260902022016 76 119 0.0 0.0 0.00 0.00 0.00 90 1012.7
20260902021516 76 119 0.0 0.0 0.00 0.00 0.00 91 1012.7
20260902021016 76 119 0.0 0.0 0.00 0.00 0.00 90 1012.7
20260902020519 76 119 0.0 0.0 0.00 0.00 0.00 90 1012.6
20260902020028 76 119 0.0 0.0 0.00 0.00 0.00 90 1012.6
20260902015515 77 119 0.0 0.0 0.00 0.00 0.00 89 1012.5
20260902015015 77 119 0.0 0.0 0.00 0.00 0.00 89 1012.6
20260902014515 77 119 0.0 0.0 0.00 0.00 0.00 89 1012.5
20260902014017 77 119 0.0 1.0 0.00 0.00 0.00 89 1012.5
20260902013514 77 119 0.0 1.0 0.00 0.00 0.00 88 1012.4
20260902013015 77 119 0.0 1.0 0.00 0.00 0.00 88 1012.4
20260902012515 78 119 0.0 1.0 0.00 0.00 0.00 87 1012.3
20260902012014 78 119 0.0 1.0 0.00 0.00 0.00 87 1012.3
20260902011517 79 119 0.0 1.0 0.00 0.00 0.00 86 1012.2
20260902011014 79 119 0.0 2.0 0.00 0.00 0.00 85 1012.2
20260902010513 80 119 0.0 2.0 0.00 0.00 0.00 84 1012.2
20260902010020 80 119 0.0 2.0 0.00 0.00 0.00 83 1012.2
20260902005515 81 194 0.0 1.0 0.00 0.00 0.00 82 1012.1
20260902005012 81 194 0.0 2.0 0.00 0.00 0.00 82 1012.0
20260902004513 82 194 0.0 2.0 0.00 0.00 0.00 81 1012.0
20260902004013 82 178 0.0 1.0 0.00 0.00 0.00 81 1012.0
20260902003512 83 178 0.0 1.0 0.00 0.00 0.00 80 1011.9
20260902003012 84 178 0.0 1.0 0.00 0.00 0.00 80 1011.9
20260902002511 85 178 0.0 1.0 0.00 0.00 0.00 79 1012.0
20260902002011 86 178 0.0 0.0 0.00 0.00 0.00 78 1011.9
20260902001517 86 178 0.0 0.0 0.00 0.00 0.00 77 1012.0
20260902001012 87 178 0.0 0.0 0.00 0.00 0.00 77 1011.9
20260902000510 88 178 0.0 0.0 0.00 0.00 0.00 76 1011.9
20260902000022 89 178 0.0 0.0 0.00 0.00 0.00 74 1012.0
20260901235510 89 178 0.0 0.0 0.00 0.00 0.00 73 1011.9
20260901235012 90 178 0.0 0.0 0.00 0.00 0.00 72 1012.0
20260901234510 90 178 0.0 2.0 0.00 0.00 0.00 72 1012.1
20260901234010 90 178 0.0 3.0 0.00 0.00 0.00 71 1012.1
20260901233514 91 186 0.0 3.0 0.00 0.00 0.00 70 1012.1
20260901233010 91 195 0.0 4.0 0.00 0.00 0.00 70 1012.1
20260901232510 91 202 1.0 4.0 0.00 0.00 0.00 69 1012.0
20260901232010 91 180 0.0 4.0 0.00 0.00 0.00 68 1012.0
20260901231515 92 188 1.0 5.0 0.00 0.00 0.00 66 1012.1
20260901231013 92 207 2.0 6.0 0.00 0.00 0.00 66 1012.0
20260901230509 93 198 2.0 6.0 0.00 0.00 0.00 65 1012.0
20260901230010 93 195 2.0 6.0 0.00 0.00 0.00 65 1012.0
20260901225508 93 190 2.0 5.0 0.00 0.00 0.00 64 1012.0
20260901225008 94 183 2.0 5.0 0.00 0.00 0.00 64 1011.9
20260901224514 94 229 1.0 5.0 0.00 0.00 0.00 63 1011.9
20260901224010 94 202 1.0 6.0 0.00 0.00 0.00 64 1011.9
20260901223508 94 191 2.0 7.0 0.00 0.00 0.00 61 1011.9
20260901223008 94 213 3.0 7.0 0.00 0.00 0.00 60 1012.0
20260901222511 94 212 3.0 7.0 0.00 0.00 0.00 61 1011.9
20260901222007 94 192 3.0 6.0 0.00 0.00 0.00 61 1012.0
20260901221518 94 198 2.0 6.0 0.00 0.00 0.00 62 1012.0
20260901221009 94 219 3.0 6.0 0.00 0.00 0.00 62 1012.0
20260901220506 95 181 3.0 6.0 0.00 0.00 0.00 62 1012.1
20260901220007 94 199 3.0 7.0 0.00 0.00 0.00 60 1012.0
20260901215507 94 200 3.0 8.0 0.00 0.00 0.00 60 1011.9
20260901215007 95 180 3.0 8.0 0.00 0.00 0.00 59 1012.0
20260901214506 95 209 4.0 7.0 0.00 0.00 0.00 59 1011.9
20260901214009 95 207 4.0 8.0 0.00 0.00 0.00 62 1011.9
20260901213506 95 211 5.0 8.0 0.00 0.00 0.00 58 1011.9
20260901213005 95 182 4.0 8.0 0.00 0.00 0.00 61 1011.9
20260901212504 95 197 4.0 7.0 0.00 0.00 0.00 59 1012.0
20260901212009 95 176 4.0 9.0 0.00 0.00 0.00 62 1012.1
20260901211504 95 185 4.0 9.0 0.00 0.00 0.00 61 1012.1
20260901211004 95 168 5.0 8.0 0.00 0.00 0.00 59 1012.0
20260901210503 96 246 5.0 8.0 0.00 0.00 0.00 60 1012.1
20260901210003 96 215 3.0 8.0 0.00 0.00 0.00 62 1012.1
20260901205502 95 234 2.0 7.0 0.00 0.00 0.00 56 1012.1
20260901205004 95 229 4.0 7.0 0.00 0.00 0.00 61 1012.1
20260901204502 95 205 5.0 9.0 0.00 0.00 0.00 63 1012.2
20260901204001 95 188 5.0 9.0 0.00 0.00 0.00 62 1012.2
20260901203501 95 174 4.0 9.0 0.00 0.00 0.00 64 1012.1
20260901203001 95 203 4.0 11.0 0.00 0.00 0.00 63 1012.1
20260901202501 95 196 5.0 11.0 0.00 0.00 0.00 62 1012.2
20260901202002 95 225 6.0 10.0 0.00 0.00 0.00 64 1012.2
20260901201600 95 206 4.0 9.0 0.00 0.00 0.00 63 1012.2
20260901201100 95 225 4.0 9.0 0.00 0.00 0.00 62 1012.2
20260901200559 95 187 5.0 9.0 0.00 0.00 0.00 64 1012.3
20260901200105 95 227 5.0 10.0 0.00 0.00 0.00 63 1012.3
20260901195600 95 235 4.0 10.0 0.00 0.00 0.00 63 1012.3
20260901195058 95 253 4.0 9.0 0.00 0.00 0.00 64 1012.3
20260901194606 95 226 5.0 9.0 0.00 0.00 0.00 63 1012.3
20260901194058 95 207 5.0 9.0 0.00 0.00 0.00 64 1012.3
20260901193557 95 200 2.0 7.0 0.00 0.00 0.00 67 1012.4
20260901193059 95 182 4.0 10.0 0.00 0.00 0.00 66 1012.4
20260901192556 95 186 5.0 9.0 0.00 0.00 0.00 65 1012.5
20260901192055 94 200 4.0 9.0 0.00 0.00 0.00 66 1012.5